Dewpoint
54 51 48 46 42 41 30 39 26 33 29 24 19 22 20 26 26 29 30 30 33 33 37 40 50 49 44 42 42 44 47 45 43 38 45 58 63 62 64 64 66 65 65 65 67 69 70 70 70 70 69 68 67 66 66 66 65 65 65 64 65 64 66 70 70 70 69 70 70 69 69 68 68 67 66 66 66 66 66 65 64 64 64 66 66 63 63 63 63 63 64 64 65 65 66 66 66
49 49 45 45 43 40 33 33 30 23 24 20 20 19 24 26 28 26 27 32 29 30 34 46 49 47 47 47 46 46 48 50 52 53 58 61 62 61 64 65 64 64 64 65 67 69 70 70 70 70 69 68 67 67 67 66 66 65 65 65 65 64 63 68 68 68 69 70 69 68 68 68 67 66 66 66 66 66 65 65 64 63 64 66 65 64 63 64 63 63 63 63 63 64 63 65 66
43 44 42 42 36 38 36 35 28 24 20 13 17 18 24 25 27 23 27 27 34 40 45 48 48 44 41 42 41 42 47 56 56 58 59 62 59 60 63 64 65 64 64 65 66 67 69 70 70 70 68 68 67 67 67 66 66 65 65 66 65 64 64 67 68 67 68 70 70 69 69 68 68 68 67 66 66 65 65 63 63 64 65 65 65 66 65 64 65 65 65 64 63 63 63 64 64
52 47 41 37 30 40 32 30 29 22 18 16 12 21 23 24 24 24 27 41 44 44 44 46 46 47 42 34 42 45 49 52 57 59 59 60 58 62 62 64 67 64 65 66 65 66 68 69 70 71 68 68 68 67 67 66 65 65 65 65 65 64 64 68 68 68 68 69 69 69 68 67 66 65 65 65 65 65 63 64 64 63 63 66 66 66 65 64 64 64 63 64 64 64 65 65 65
45 45 47 28 31 34 35 33 27 24 13 14 12 21 22 26 23 25 31 44 40 35 40 43 44 48 50 46 46 41 48 58 58 59 59 60 63 62 63 66 66 65 65 65 65 67 69 69 70 70 69 69 68 67 67 67 66 65 65 65 65 64 66 67 67 68 69 69 69 69 68 67 65 64 64 64 64 64 63 63 62 63 63 65 65 65 65 64 63 62 63 64 64 64 64 65 65
46 41 47 42 27 35 31 27 25 20 21 19 12 16 18 23 22 29 39 41 40 41 37 42 40 43 46 50 51 47 55 49 57 59 59 60 63 62 64 67 65 65 65 66 66 67 70 69 70 70 69 69 68 68 67 67 66 65 65 65 64 64 64 66 66 67 68 68 69 68 67 66 65 64 64 63 63 63 62 62 62 62 64 64 65 65 65 66 66 65 64 64 64 65 65 65 65
38 37 41 36 34 37 29 26 22 19 18 19 18 17 18 21 24 35 37 36 35 33 30 36 41 44 39 50 53 57 58 59 57 58 61 63 65 63 65 65 65 65 66 66 67 68 70 68 70 70 70 69 68 68 67 67 66 66 65 65 64 63 63 64 65 65 66 68 68 68 68 66 65 64 63 63 63 62 62 64 63 63 63 65 65 65 65 65 65 66 65 64 65 66 66 66 65
46 38 39 29 31 29 26 25 24 21 21 19 19 19 21 24 29 32 33 29 30 30 32 34 45 38 41 48 48 58 59 60 60 61 62 63 65 64 66 64 64 65 66 67 68 69 70 68 70 70 70 69 68 68 67 67 67 66 65 64 64 64 63 64 65 64 65 65 67 67 67 67 65 64 63 62 62 61 63 62 62 63 63 63 64 65 66 66 65 65 65 65 66 66 66 66 65
39 32 42 36 29 29 23 21 23 19 20 22 22 25 33 28 31 31 31 30 26 27 29 38 43 30 37 43 50 57 58 61 61 62 63 64 64 64 64 64 64 66 66 67 68 69 68 68 69 70 70 69 68 68 67 67 66 66 65 65 64 64 64 64 64 63 66 65 65 68 68 67 66 64 62 62 61 61 63 63 63 63 63 63 63 63 63 64 65 65 65 65 66 66 66 65 66
35 37 26 32 32 26 22 21 21 20 22 22 23 26 28 26 31 34 31 29 25 27 33 39 35 29 42 43 50 56 58 62 63 63 63 64 64 63 63 64 65 66 67 67 67 68 68 70 68 69 69 70 70 69 68 68 67 66 65 64 64 65 65 65 64 64 63 63 64 64 65 67 66 65 63 62 61 62 63 62 62 63 64 64 64 65 66 66 66 65 65 65 65 65 66 66 67
26 31 40 30 27 23 22 18 20 21 23 24 23 24 28 27 31 31 31 26 27 29 35 37 34 31 41 44 51 56 61 63 63 62 63 64 64 62 62 62 65 67 67 68 68 68 69 70 69 68 68 69 69 69 69 68 67 67 66 66 65 65 65 65 64 64 64 64 64 65 65 66 66 65 64 62 61 62 64 64 63 64 64 63 64 65 65 65 65 66 65 65 65 65 66 67 67
26 30 34 28 25 24 18 18 20 23 24 24 24 26 27 28 30 29 28 25 25 25 32 38 32 41 40 42 46 55 60 64 62 63 63 64 63 63 62 62 65 67 68 68 68 67 68 69 70 69 66 66 68 69 69 69 69 67 68 67 66 66 66 65 65 65 64 64 66 66 65 65 66 65 64 62 62 63 64 64 63 63 63 63 63 65 65 64 65 65 65 65 65 65 66 67 67
33 37 25 23 24 21 24 19 21 28 25 23 23 25 28 25 26 26 27 23 24 26 28 36 42 42 30 36 50 54 59 64 62 64 64 64 63 63 63 61 64 66 67 68 68 68 70 68 68 68 67 64 65 66 67 67 68 69 69 68 68 68 67 66 65 66 66 63 66 66 67 67 66 64 63 62 62 63 64 64 63 63 63 62 64 63 63 63 64 64 64 64 64 64 64 66 66
31 37 30 28 27 24 20 23 23 19 17 23 23 26 26 25 25 24 24 23 23 24 29 27 38 40 37 39 48 51 57 63 63 64 64 64 64 62 63 62 66 65 67 68 67 68 69 68 68 68 69 68 68 67 65 67 67 68 68 68 68 68 68 68 68 68 67 67 67 66 66 66 67 65 65 62 63 64 65 66 64 63 62 62 63 64 64 64 64 64 64 64 64 64 64 64 66
37 36 31 31 24 23 23 15 18 18 15 23 22 26 26 25 22 22 21 20 20 24 33 37 44 38 24 29 39 49 58 63 64 65 64 65 64 63 64 64 64 66 67 67 67 69 68 69 68 69 67 67 67 67 67 70 65 66 67 67 67 67 67 67 66 65 66 65 65 64 64 64 64 65 66 65 64 64 64 66 66 65 64 63 63 64 64 64 64 64 64 64 64 64 64 64 65
39 34 31 28 22 24 22 21 24 21 16 21 22 24 25 21 20 21 21 22 24 33 33 31 40 36 33 30 45 51 60 63 64 65 64 65 65 64 65 65 64 64 66 67 67 67 68 67 68 68 67 66 67 66 67 68 65 64 65 66 66 66 66 65 64 63 62 61 62 62 62 63 62 63 61 62 63 62 63 63 65 65 63 62 62 63 63 64 64 64 64 63 63 64 64 64 64
38 37 23 23 20 23 23 20 23 9 20 22 21 24 23 21 20 21 23 23 21 29 31 36 36 48 38 42 52 57 62 64 64 65 64 65 65 65 65 65 65 64 65 66 67 67 67 68 67 68 67 67 67 66 66 67 70 64 64 63 64 64 64 64 62 60 59 59 60 60 61 63 62 62 62 61 59 62 60 61 64 65 64 65 65 63 63 64 64 64 63 63 63 64 63 62 62
38 29 26 21 23 22 23 19 19 21 15 20 20 23 23 19 19 22 24 24 25 27 29 34 39 43 48 52 55 56 63 64 65 64 63 64 64 64 63 64 63 63 64 65 66 66 66 67 68 66 67 67 66 66 66 66 68 66 66 66 67 65 62 61 64 65 64 64 58 62 62 61 61 61 62 62 60 61 63 60 61 64 64 63 64 63 62 63 63 63 63 63 63 62 60 62 61
30 30 29 19 23 21 21 19 17 16 16 18 20 22 21 19 20 22 21 21 23 23 25 28 29 40 49 53 56 59 63 64 64 63 63 62 63 62 62 63 63 62 63 64 65 65 66 66 67 66 66 66 67 66 66 66 66 66 66 65 66 63 65 66 66 64 64 64 64 63 60 60 61 61 61 62 62 60 62 59 61 62 63 63 63 64 63 63 63 63 62 61 60 59 62 62 61
26 31 23 20 27 20 22 19 19 19 18 19 19 20 19 18 20 22 21 21 23 19 19 24 25 27 40 53 56 61 63 63 64 63 63 62 63 61 61 61 62 62 62 63 64 65 66 66 67 67 67 66 66 65 65 65 66 66 65 65 64 63 64 65 66 65 65 64 64 62 59 61 62 61 60 61 62 60 61 58 59 59 60 60 60 62 62 62 62 61 59 58 59 60 61 60 61
28 24 22 22 23 19 20 21 20 19 20 19 19 18 18 18 20 21 20 18 20 19 21 16 18 21 37 52 56 61 62 62 63 63 63 63 62 62 61 61 61 62 62 63 64 64 65 65 66 67 67 67 66 65 65 64 65 65 65 65 64 63 63 64 64 65 65 64 64 61 62 62 62 60 61 61 60 60 60 61 61 61 60 61 59 60 60 62 59 60 58 58 59 60 60 60 60
26 20 22 22 22 20 20 21 23 20 21 19 18 19 19 18 19 19 19 15 9 11 19 22 21 26 41 53 56 60 61 61 62 62 62 62 62 62 61 61 62 63 63 63 63 64 65 65 66 66 66 67 66 65 64 64 65 65 65 65 64 64 64 62 63 63 63 64 63 62 62 62 61 60 61 61 61 60 60 59 60 60 60 60 60 59 59 59 58 59 59 58 57 58 59 59 59
17 20 21 22 21 18 22 22 24 20 19 18 18 18 18 18 18 18 20 17 16 20 20 23 22 24 45 53 56 58 60 60 61 61 61 62 62 62 62 61 62 62 63 63 63 64 65 65 66 66 66 67 66 65 65 65 65 64 64 65 64 63 63 63 62 63 62 63 63 63 61 60 60 59 60 61 60 60 60 59 58 59 60 59 59 58 58 57 57 56 56 57 57 57 58 58 58
20 17 20 21 23 21 23 22 22 19 19 18 18 17 17 17 16 19 18 19 19 18 26 28 23 34 52 54 56 57 58 59 59 60 60 60 60 62 62 61 61 62 63 63 63 64 65 65 66 67 66 66 66 65 64 64 64 63 64 65 65 63 63 63 61 62 63 62 63 60 59 60 59 59 60 60 60 60 60 60 59 59 59 58 58 58 58 56 55 56 57 57 57 57 57 58 57
18 18 21 22 22 22 22 21 19 18 19 20 18 17 16 17 18 18 17 17 18 19 34 39 41 48 53 55 56 58 58 59 59 59 60 60 60 62 62 62 62 62 62 63 63 63 65 65 66 66 66 66 66 65 64 65 64 64 64 65 64 63 63 63 62 62 61 61 61 62 61 59 59 59 60 59 60 59 60 60 59 58 59 58 57 56 57 56 55 55 56 56 56 56 56 56 56
20 20 22 22 21 22 22 21 21 20 19 18 17 18 20 19 20 17 17 19 21 25 43 51 54 52 53 54 55 57 57 58 59 59 59 60 60 61 61 62 62 61 62 63 63 64 65 65 65 65 66 66 66 66 66 65 65 64 64 64 64 63 63 62 63 62 61 61 61 62 61 59 59 58 59 59 60 60 60 61 60 60 58 57 57 56 56 55 55 55 55 56 56 56 55 55 55
22 22 21 21 21 22 22 20 21 22 22 20 17 17 19 19 18 7 18 20 23 33 41 50 52 46 53 54 55 56 57 58 58 58 59 59 59 60 61 62 62 61 62 63 63 64 64 65 65 65 66 66 66 66 66 65 65 65 64 64 65 64 63 62 62 63 62 61 61 61 62 61 59 59 59 59 59 60 60 60 59 59 58 57 56 56 55 55 55 54 55 55 55 55 55 55 54
21 21 20 20 20 21 21 21 21 22 20 24 18 17 19 20 18 12 18 20 24 27 38 48 49 46 51 54 54 56 56 57 58 59 58 58 58 59 60 60 61 61 62 62 63 63 64 65 65 65 66 66 66 66 66 66 65 65 65 64 64 65 64 63 62 62 61 62 62 62 61 60 59 59 60 60 59 59 59 59 59 59 58 57 56 56 54 54 54 54 55 55 55 55 54 54 55
21 19 16 18 19 18 20 20 22 25 19 23 22 18 16 20 15 22 21 19 22 25 30 42 48 48 49 52 53 55 55 56 57 57 58 58 59 59 59 60 60 61 62 62 62 63 63 64 65 64 65 66 66 66 66 65 65 65 65 65 64 65 64 64 63 62 61 62 62 62 61 61 60 59 59 60 60 59 59 59 59 59 59 57 56 56 55 55 53 53 53 54 54 54 54 54 55
18 17 16 14 14 14 20 22 22 20 20 19 16 6 5 13 17 16 16 20 22 20 21 24 33 43 46 49 51 52 54 56 56 57 58 58 59 59 59 60 60 60 61 61 61 61 62 64 64 64 64 65 66 66 65 66 66 65 65 65 65 65 65 64 63 63 62 61 61 62 61 61 59 58 59 60 59 58 59 59 58 58 58 58 56 55 54 54 52 52 52 52 51 52 52 53 52
16 17 18 18 14 13 19 23 23 17 21 17 8 12 4 5 9 16 22 24 22 18 19 19 21 24 35 45 48 49 52 54 55 56 58 59 59 59 59 60 60 60 61 61 61 62 61 62 63 63 64 64 65 66 66 65 66 66 65 65 65 65 65 65 65 64 63 62 61 61 61 60 60 59 59 58 58 58 58 58 58 58 58 57 55 54 54 52 52 52 51 50 51 50 51 52 52
13 11 14 20 16 16 14 26 23 15 21 18 9 14 7 6 9 18 21 23 22 18 18 19 21 21 22 27 35 42 46 51 53 55 57 58 59 59 59 60 60 60 61 61 62 61 61 61 63 63 64 64 64 64 65 66 66 66 67 64 65 65 65 65 64 65 64 63 62 61 61 61 60 59 59 59 58 57 57 57 57 57 58 56 55 53 53 52 51 52 51 50 49 50 50 50 50
14 14 28 19 17 13 9 20 24 25 22 19 15 6 5 11 20 20 21 22 21 20 20 22 22 23 23 21 23 25 32 38 47 50 53 55 57 58 58 59 60 60 61 61 61 61 62 61 62 62 63 65 64 63 65 65 66 66 66 67 66 66 66 65 65 64 65 64 62 61 61 61 60 60 59 58 58 57 56 56 56 57 57 56 55 54 52 53 51 51 50 50 50 48 49 50 50
17 21 15 27 12 10 7 18 24 28 22 16 19 12 5 16 19 18 20 22 22 21 20 20 22 23 25 28 26 22 23 27 28 35 42 50 53 55 56 56 58 59 61 61 61 61 61 61 62 63 62 62 63 63 64 65 65 66 67 67 66 67 66 66 65 65 65 65 64 62 62 61 61 61 60 59 57 57 56 56 56 56 57 56 55 54 52 51 50 50 50 50 49 49 48 48 49
17 15 16 13 15 14 8 10 19 23 22 18 19 17 14 13 15 16 19 22 22 21 21 22 22 23 24 26 25 24 25 26 25 28 31 33 41 48 53 56 56 58 58 59 60 61 61 61 61 62 63 62 62 62 64 65 65 65 66 66 67 67 67 67 67 66 66 66 65 64 63 61 60 61 61 60 58 57 57 57 56 56 56 56 55 54 53 53 52 51 50 49 48 48 47 48 48
17 15 10 16 12 11 9 13 22 24 20 17 18 14 13 15 16 17 20 22 22 22 23 24 23 23 23 23 25 27 31 27 29 31 33 30 30 33 38 47 54 57 57 57 58 60 60 60 60 61 62 62 62 62 63 63 64 64 64 65 65 66 67 66 66 66 65 66 66 65 64 64 63 62 61 61 60 60 58 57 57 56 56 55 55 54 53 52 52 51 50 49 47 46 46 46 46
17 21 20 14 13 15 17 23 23 24 21 18 18 20 19 19 19 20 21 23 24 23 22 24 25 25 26 27 25 29 29 27 39 37 36 36 37 35 35 38 45 51 55 56 57 58 59 60 60 60 61 62 62 62 62 62 62 63 64 63 62 63 65 66 66 66 66 66 65 65 64 63 63 62 61 61 60 59 59 58 57 56 55 54 54 54 54 54 53 50 49 48 48 47 46 46 46
13 13 13 13 23 7 21 23 23 23 21 20 21 21 22 21 21 21 22 22 21 21 22 23 22 21 23 26 26 29 27 31 35 32 31 31 33 39 39 38 40 44 50 54 56 57 58 59 59 59 59 60 61 61 62 62 62 61 61 62 63 63 65 65 65 66 66 66 66 66 66 65 64 63 61 61 61 60 59 58 58 57 55 54 53 54 54 53 53 50 49 48 47 46 46 47 46
20 11 19 18 16 24 22 23 23 22 20 16 22 21 20 20 20 21 21 21 22 22 23 22 23 25 26 26 29 29 30 30 30 27 32 30 36 38 36 37 38 38 44 50 54 56 57 58 59 59 59 59 60 61 61 62 62 62 62 62 63 64 65 64 64 65 66 66 66 66 65 65 64 64 63 62 62 61 60 59 58 58 56 55 53 54 54 54 52 51 50 49 48 46 46 46 45
18 18 14 9 24 15 14 22 23 21 21 20 24 21 18 17 16 15 17 13 17 20 19 20 22 20 20 19 22 26 27 31 32 30 26 29 35 35 37 38 37 39 39 42 49 54 55 56 57 58 58 58 59 60 61 62 63 64 64 62 63 63 63 65 65 65 65 64 64 66 66 66 66 65 64 63 62 61 60 60 60 59 58 56 55 54 54 53 53 52 50 48 48 45 44 44 44
27 28 20 21 22 19 22 18 22 19 19 20 18 19 14 16 8 9 15 15 16 18 20 22 26 29 29 33 36 37 32 31 32 30 35 37 38 40 40 39 38 38 40 40 44 48 51 54 56 57 57 58 58 58 60 62 62 63 64 63 64 64 63 63 63 63 64 63 64 65 64 65 65 66 66 65 63 62 62 61 60 60 60 58 55 55 55 53 52 53 52 51 49 48 47 46 45
21 27 25 17 18 19 21 22 19 18 20 19 16 11 10 14 17 12 11 16 16 17 24 25 27 29 33 34 37 39 41 37 32 34 38 40 41 42 43 43 43 40 39 42 44 45 48 51 54 56 56 57 58 58 58 60 60 61 62 62 61 61 61 61 61 61 61 62 62 63 64 65 64 64 64 64 65 63 63 63 62 62 61 59 57 55 54 54 54 53 51 50 49 49 49 48 47
21 12 25 21 20 24 24 23 24 13 13 20 18 10 8 13 6 7 12 15 17 21 24 24 26 27 30 34 36 37 38 40 41 40 41 41 42 43 42 43 44 43 42 42 41 44 48 51 53 54 55 56 58 57 58 59 59 60 61 61 61 60 60 60 60 61 60 61 62 62 63 63 64 64 64 65 65 65 64 63 63 62 61 61 59 57 56 54 53 53 52 51 49 49 48 48 49
10 30 26 24 25 28 27 23 25 21 26 24 22 19 8 13 10 16 15 14 17 20 22 24 25 26 30 31 34 37 38 39 41 40 41 41 42 42 41 42 41 42 43 43 44 46 49 51 53 54 55 56 57 57 58 58 59 59 60 60 60 59 58 58 59 58 60 60 60 61 61 61 62 63 63 64 64 65 64 64 63 63 62 61 60 58 56 55 54 54 52 52 52 51 50 48 49
20 27 29 27 23 30 31 27 21 23 19 16 17 26 6 7 15 15 12 12 16 18 20 23 25 28 30 33 34 36 36 38 38 41 40 41 41 42 41 42 43 43 45 47 47 49 51 53 54 55 55 56 56 57 58 58 58 58 58 58 59 59 59 58 59 60 59 60 60 60 60 60 60 61 62 62 62 63 63 64 64 64 63 63 60 60 60 58 57 57 55 53 52 51 50 49 50
27 28 29 28 29 28 30 21 21 19 12 13 16 19 11 5 25 15 12 9 9 18 19 22 24 28 31 32 34 34 35 38 39 38 40 40 41 42 42 42 42 44 45 47 50 52 53 53 54 55 55 55 56 57 58 58 59 58 58 59 59 58 58 59 59 59 59 59 58 59 59 59 59 60 60 61 61 62 62 62 63 63 63 63 61 61 60 59 58 57 57 55 53 52 51 50 49
29 29 24 25 27 26 22 20 13 15 11 14 18 16 11 7 20 10 16 14 6 17 20 23 27 30 30 32 33 35 34 36 37 38 39 40 41 41 42 42 42 44 46 47 49 51 53 54 54 55 54 55 55 57 57 58 58 58 58 59 59 58 59 58 58 58 58 58 57 57 58 58 58 58 58 59 60 60 61 61 62 62 62 62 61 62 61 60 60 59 58 57 55 53 52 51 49
31 25 22 21 21 21 19 17 16 13 8 10 13 16 19 4 4 13 8 11 12 19 21 23 25 27 30 31 31 33 33 35 37 37 38 40 40 41 42 42 42 43 43 45 47 48 50 54 54 53 53 53 53 54 56 57 57 58 58 58 58 58 58 58 57 57 58 57 57 57 57 57 57 56 56 57 57 58 59 59 60 60 60 61 61 61 61 62 62 61 60 59 58 57 55 53 52
27 23 20 16 15 17 12 16 12 9 8 18 12 18 11 9 6 6 9 11 15 18 22 24 25 27 29 30 32 34 36 36 37 37 39 40 41 41 42 42 44 44 44 44 45 47 47 47 49 49 48 50 53 54 55 55 56 56 57 57 57 57 57 57 57 57 57 57 56 56 56 56 55 55 55 55 56 57 57 57 58 58 58 59 59 59 59 60 61 61 60 60 59 57 55 54 53
23 19 19 14 13 12 12 12 10 9 12 9 17 18 6 12 9 12 8 14 15 16 18 24 25 27 29 31 33 33 36 37 37 38 39 40 40 41 41 42 42 43 43 44 44 45 46 46 46 45 45 46 47 49 51 53 53 54 54 55 55 55 55 56 55 55 55 55 55 55 55 54 54 54 54 54 54 55 56 56 56 57 57 58 58 58 58 59 59 59 60 59 59 59 58 56 55
20 32 24 21 19 15 10 9 7 12 13 15 14 15 16 9 1 15 11 14 16 15 16 23 25 27 29 30 33 33 34 35 37 38 38 38 39 39 40 41 42 42 43 44 44 45 45 45 45 44 44 44 45 46 47 47 47 48 49 50 51 51 52 51 52 52 52 53 53 53 53 53 53 53 53 53 53 54 54 54 55 55 56 56 56 57 57 57 57 58 58 57 57 57 58 58 57
26 28 24 17 16 23 7 12 13 15 12 15 18 10 11 10 14 17 17 18 17 16 21 22 22 22 29 30 33 33 33 34 37 37 37 38 38 39 40 40 40 41 41 42 43 45 45 44 43 43 43 44 44 45 45 45 45 45 47 48 48 48 48 49 49 50 50 51 51 51 51 51 51 51 52 52 53 53 53 53 53 54 54 54 55 55 55 55 56 56 56 56 56 57 57 57 57
24 20 19 20 24 18 14 15 9 13 9 6 22 15 19 15 9 11 15 13 13 14 16 18 21 26 32 32 33 32 34 36 37 38 37 37 38 38 39 39 39 39 40 40 41 42 42 43 42 41 41 41 42 43 43 44 45 46 46 46 46 47 48 48 48 49 49 49 50 49 49 50 50 50 51 51 51 51 51 52 52 52 52 53 53 53 54 54 54 55 54 55 55 55 56 56 56
23 18 23 25 27 27 15 6 14 11 5 14 11 10 3 2 13 16 14 15 13 15 16 18 25 30 30 33 34 34 35 35 35 36 37 37 38 38 39 39 39 39 39 39 39 41 41 42 41 40 40 40 40 41 41 42 43 44 45 45 45 46 45 46 47 47 48 47 48 48 48 48 48 50 49 50 49 49 50 49 50 50 51 51 51 52 52 52 53 53 53 53 54 54 54 55 55
23 27 31 20 13 11 7 14 8 8 9 8 4 7 7 10 7 10 13 13 12 15 18 20 26 28 31 32 32 33 34 35 36 36 37 37 38 38 38 38 38 38 39 39 40 40 40 40 40 39 39 39 40 41 41 41 41 43 44 43 43 43 44 44 45 46 46 47 46 46 46 47 47 47 47 48 48 48 48 48 49 49 49 49 50 50 50 51 51 51 52 52 52 53 53 53 52
29 25 18 27 20 18 11 10 20 10 10 8 16 4 4 19 8 7 12 14 15 15 19 21 26 27 29 30 32 33 35 35 36 36 37 37 37 37 37 38 38 38 39 39 40 40 39 39 39 39 39 40 39 40 40 39 41 41 42 41 41 42 42 42 43 44 43 44 44 44 44 45 45 44 45 46 46 46 46 47 47 47 48 48 48 49 49 49 49 50 50 50 51 51 51 51 51
17 16 14 23 20 21 17 9 13 4 8 5 4 4 10 11 12 7 9 14 14 16 20 24 26 28 29 31 33 34 35 36 36 37 37 37 37 37 37 38 38 39 39 39 40 39 39 39 39 39 39 38 38 39 39 39 40 40 40 40 40 40 40 40 41 41 41 41 41 41 42 42 42 43 43 44 44 44 45 45 45 46 46 46 47 47 47 48 48 48 48 49 49 49 50 50 50
20 18 16 19 19 16 13 12 10 14 7 6 3 4 18 15 13 11 8 9 15 20 23 27 27 27 30 33 33 34 35 35 36 36 37 37 37 37 38 38 39 39 38 38 38 38 38 38 39 39 38 38 38 38 39 39 39 39 39 38 39 39 39 39 40 40 40 40 40 40 40 40 41 41 42 42 42 43 44 44 44 44 45 45 45 45 46 46 46 47 47 48 48 48 48 48 48